www.pogodaiklimat.ru

Погода и климат >> Архив погоды >> Оман >> Umzamaim


ПОГОДА в Umzamaim

  • Прогноз погоды в Umzamaim
  • Монитор погоды в Umzamaim
  • Климат города

АРХИВ ПОГОДЫ в Umzamaim

Время (UTC), дата Ветер
(напр.,м/с)
 
Видим.   Явления Облачность Т
(С)
Тd
(С)
f
(%)
Тe
(С)
Тes
(С)
Комфортность P
(гПа)
Po
(гПа)
Тmin
(С)
Tmax
(С)
R
(мм)
R24
(мм)
S
(см)
03 8.08 ЮЗ 6 н/о н/о +31.5 +16.4 40 +34 +34 душно 994.8 980.8
06 8.08 З 5 н/о н/о +39.9 +13.6 21 +40 +40 очень
душно
994.9 981.3 +30.6
09 8.08 З 5 н/о н/о +46.1 +3.9 8 +43 +43 опасность
перегрева
992.5 979.2
12 8.08 З 5 н/о н/о +47.6 -1.0 5 +44 +44 опасность
перегрева
990.8 977.5
15 8.08 З 4 н/о н/о +45.2 -0.7 6 +41 +41 опасность
перегрева
991.5 978.2
18 8.08 Ю 4 н/о н/о +37.3 +9.9 19 +42 +42 опасность
перегрева
994.5 980.9 +48.1
21 8.08 ЮВ 4 н/о н/о +33.5 +20.4 46 +40 +40 очень
душно
995.2 981.4
00 9.08 Ю 5 н/о н/о +31.2 +20.4 53 +38 +38 очень
душно
994.6 980.6
03 9.08 В 7 н/о н/о +29.2 +21.2 62 +37 +37 очень
душно
996.7 982.7
06 9.08 В 6 н/о н/о +31.2 +21.3 56 +39 +39 очень
душно
998.1 984.2 +27.9
09 9.08 В 7 н/о н/о +38.1 +19.9 35 +44 +44 опасность
перегрева
996.9 983.3
12 9.08 В 7 н/о н/о +40.4 +17.8 27 +43 +43 опасность
перегрева
995.8 982.2
15 9.08 В 10 н/о н/о +34.7 +20.2 43 +41 +41 опасность
перегрева
997.2 983.4
18 9.08 В 9 н/о н/о +28.3 +21.7 67 +36 +36 очень
душно
998.8 985.9 +40.7
21 9.08 В 7 н/о н/о +26.7 +22.0 75 +34 +34 очень
душно
999.9 985.7
00 10.08 В 8 н/о н/о +25.5 +21.4 78 +32 +32 очень
душно
1000.0 985.8
03 10.08 В 6 н/о н/о +24.8 +21.8 83 +32 +32 очень
душно
1001.6 987.3
06 10.08 В 7 н/о н/о +30.5 +21.8 60 +39 +39 очень
душно
1001.5 987.5 +24.6
09 10.08 В 8 н/о н/о +36.5 +19.1 36 +41 +41 опасность
перегрева
999.5 985.8
12 10.08 В 6 н/о н/о +38.9 +18.4 30 +42 +42 опасность
перегрева
997.9 984.3
15 10.08 В 8 н/о н/о +33.4 +18.9 42 +38 +38 очень
душно
999.2 985.3
18 10.08 В 6 н/о н/о +29.4 +21.7 63 +37 +37 очень
душно
1001.4 987.3 +39.0
21 10.08 СВ 6 н/о н/о +26.5 +21.8 75 +34 +34 очень
душно
1001.2 987.0
00 11.08 В 5 н/о н/о +25.3 +21.3 79 +32 +32 очень
душно
1000.5 986.2
03 11.08 В 4 н/о н/о +25.7 +21.4 77 +33 +33 очень
душно
1001.7 987.4
06 11.08 ЮВ 2 н/о н/о +32.0 +21.3 53 +40 +40 очень
душно
1001.8 987.8 +25.1
09 11.08 Ю 3 н/о н/о +39.5 +19.0 31 +44 +44 опасность
перегрева
999.4 985.8
12 11.08 ЮЗ 2 н/о н/о +42.5 +16.1 22 +44 +44 опасность
перегрева
996.7 983.2
15 11.08 Ю 2 н/о н/о +42.1 +14.9 20 +43 +43 опасность
перегрева
997.0 983.4
18 11.08 Ю 7 н/о н/о +34.1 +19.8 43 +40 +40 очень
душно
999.3 985.5 +43.1
21 11.08 Ю 7 н/о н/о +30.8 +20.6 55 +38 +38 очень
душно
998.8 984.7
00 12.08 Ю 6 н/о н/о +29.8 +19.9 55 +36 +36 очень
душно
998.1 984.0
03 12.08 ЮЗ 7 н/о н/о +29.7 +20.0 56 +36 +36 очень
душно
998.6 984.5
06 12.08 ЮЗ 6 н/о н/о +37.1 +19.0 35 +42 +42 опасность
перегрева
998.5 984.8 +29.2
09 12.08 З 6 н/о н/о +44.3 +16.0 20 +46 +46 опасность
перегрева
995.5 982.1
12 12.08 З 4 н/о н/о +46.4 +12.0 14 +46 +46 опасность
перегрева
993.0 979.7
15 12.08 З 3 н/о н/о +44.6 +10.3 13 +43 +43 опасность
перегрева
992.6 979.2
18 12.08 Ю 9 н/о н/о +36.4 +20.0 38 +42 +42 опасность
перегрева
993.9 980.2 +46.8
21 12.08 Ю 10 н/о н/о +33.7 +19.4 43 +39 +39 очень
душно
993.4 979.6
00 13.08 ЮЗ 5 н/о н/о +31.6 +19.2 48 +37 +37 очень
душно
993.5 979.6
03 13.08 ЮЗ 3 н/о н/о +30.7 +19.3 51 +36 +36 очень
душно
994.4 980.4
06 13.08 З 3 н/о н/о +40.3 +13.1 20 +40 +40 очень
жарко
994.3 980.7 +30.0
09 13.08 ЮЗ 6 н/о н/о +45.1 +5.4 9 +42 +42 опасность
перегрева
992.1 978.7
12 13.08 ЮЗ 6 н/о н/о +46.7 +1.1 6 +43 +43 опасность
перегрева
990.4 977.1
15 13.08 ЮЗ 5 н/о н/о +43.6 +1.5 8 +40 +40 очень
жарко
991.1 977.7
18 13.08 ЮВ 4 н/о н/о +37.0 +9.5 19 +36 +36 очень
жарко
992.9 979.2 +47.5
21 13.08 Ю 8 н/о н/о +32.1 +19.2 46 +37 +37 очень
душно
993.2 979.3
00 14.08 Ю 7 н/о н/о +29.9 +19.1 52 +35 +35 очень
душно
994.0 980.1
03 14.08 Ю 8 н/о н/о +29.1 +19.1 55 +35 +35 очень
душно
995.2 981.1
06 14.08 ЮЗ 8 н/о н/о +37.5 +15.0 26 +39 +39 очень
душно
995.7 982.0 +28.7
09 14.08 ЮЗ 4 н/о н/о +44.9 +13.0 16 +45 +45 опасность
перегрева
993.2 979.9
12 14.08 ЮЗ 3 н/о н/о +46.6 +10.8 12 +45 +45 опасность
перегрева
991.5 978.2
15 14.08 ЮЗ 5 н/о н/о +44.8 +7.8 11 +43 +43 опасность
перегрева
992.2 978.9
18 14.08 Ю 7 н/о н/о +36.2 +18.6 36 +41 +41 опасность
перегрева
995.2 981.4 +47.1
21 14.08 Ю 6 н/о н/о +31.4 +19.4 49 +37 +37 очень
душно
996.1 982.1
00 15.08 Ю 6 н/о н/о +29.5 +19.3 54 +35 +35 очень
душно
995.1 981.1

 

Местоположение метеостанции Umzamaim (Оман): широта 20.80 долгота 57.12 высота над уровнем моря 126 м.

В архиве по умолчанию представлена погода в Umzamaim за последнюю неделю. Архивные данные за месяц целиком и за предыдущие месяцы, начиная с января 2011 года, Вы можете получить, выбрав интересующий диапазон дат из раскрывающегося списка и нажав кнопку "Ввод!".


*Определитесь, кто Вы:
робот инопланетянин человек

Внимание! Время в таблицах - всемирное. Для получения местного времени необходимо прибавить поправку, которая в Umzamaim равна 4 ч.

Смотрите также архив погоды в соседних городах и на ближайших метеорологических станциях:

Погода в Qarn Alam (Оман) (64 км)
Погода в Yaaloni (Оман) (96 км)
Погода в Joba (Оман) (118 км)
Погода в Duqm (Оман) (142 км)
Погода в Adam (Оман) (181 км)
Погода в Fahud (Оман) (183 км)
Погода в Masirah (Оман) (186 км)
Погода в Al Mudhaibi (Оман) (217 км)
Погода в Nizwa (Оман) (232 км)
Погода в Bahla (Оман) (243 км)

Пояснения к столбцам:

Ветер - указаны скорость ветра в м/с - средняя за 10 мин, порывы в срок и между сроками (в фигурных скобках) и направление, откуда дует ветер: С - северный, СВ - северо-восточный, В - восточный, ЮВ - юго-восточный, Ю - южный, ЮЗ - юго-западный, З - западный, СЗ - северо-западный.
Видимость - горизонтальная дальность видимости в метрах или километрах. При видимости от 1 до 10 км при отсутствии осадков обычно наблюдается дымка, при ухудшении видимости до 1 км и менее - туман. В сухую погоду видимость может ухудшаться дымом, пылью или мглою.
Явления - указаны атмосферные явления, наблюдавшиеся в срок или в последний час перед сроком; фигурными скобками обозначены явления, наблюдавшиеся между сроками (за 1-3 часа до срока); квадратными скобками обозначены град или гололедные отложения с указанием их диаметра в мм.
Облачность - указаны через наклонную черту общая и нижняя облачность в баллах и высота нижней границы облаков в метрах; квадратными скобками обозначены формы облаков: Ci - перистые, Cs - перисто-слоистые, Cc - перисто-кучевые, Ac - высококучевые, As - высокослоистые, Sc - слоисто-кучевые, Ns - слоисто-дождевые, Cu - кучевые, Cb - кучево-дождевые. Подробнее классификацию облаков см. в Атласе облаков (PDF).
T - Температура воздуха - температура, измеренная на высоте 2 м над землей.
Td - Температура точки росы - температура, при понижении до которой содержащийся в воздухе водяной пар достигнет насыщения.
f - Относительная влажность воздуха - влажноcть воздуха, измеренная на высоте 2 м над землей.
Te - Эффективная температура - температура, которую ощущает одетый по сезону человек в тени. Характеристика душности погоды. При расчете учитывается влияние влажности воздуха и скорости ветра на теплоощущения человека.
Tes - Эффективная температура на солнце - температура, которую ощущает человек, с поправкой на солнечный нагрев. Характеристика знойности погоды. Зависит от высоты солнца над горизонтом, облачности и скорости ветра. Ночью, в пасмурную погоду, а также при ветре 12 м/с и более поправка равна нулю.
P - Атмосферное давление - приведенное к уровню моря атмосферное давление.
Po - Атмосферное давление - измеренное на уровне метеостанции атмосферное давление.
Tmin - Минимальная температура - минимум температуры воздуха на высоте 2 м над землей.
Tmax - Максимальная температура - максимум температуры воздуха на высоте 2 м над землей.
R - Количество осадков - Количество выпавших осадков за период времени, мм. При наведении курсора мыши на число - период времени, за который выпало указанное количество осадков.
R24 - Количество осадков - Количество выпавших осадков за 24 часа, мм.
S - Снежный покров - Высота снежного покрова, см. При наведении курсора мыши на число - состояние снежного покрова и степень покрытия местности в баллах.